Date,X,Y
01/01/2014 01:42:15,8.6899995803833,23.4300003051758
01/01/2014 01:42:16,8.7685718536377,23.3514289855957
01/01/2014 01:42:17,8.81466674804688,23.0022220611572
01/01/2014 01:42:18,8.89262199401855,22.6575355529785
01/01/2014 01:42:19,8.93317604064941,22.3913516998291
01/01/2014 01:42:20,9.0015754699707,22.1160411834717
01/01/2014 01:42:21,8.97483825683594,21.8700294494629
01/01/2014 01:42:22,8.99064540863037,21.5210475921631
01/01/2014 01:42:23,8.94949340820313,21.1413173675537
01/01/2014 01:42:24,8.97422790527344,20.84326171875
01/01/2014 01:42:25,8.94648456573486,20.6247177124023
01/01/2014 01:42:26,8.9135856628418,20.3730430603027
01/01/2014 01:42:27,8.83309936523438,20.1264591217041
01/01/2014 01:42:28,8.7156867980957,19.8327674865723
01/01/2014 01:42:29,8.65236949920654,19.6280841827393
01/01/2014 01:42:30,8.51884078979492,19.4508838653564
01/01/2014 01:42:31,8.37038421630859,19.2597160339355
01/01/2014 01:42:32,8.23848342895508,19.1106872558594
01/01/2014 01:42:33,8.1262903213501,18.9370899200439
01/01/2014 01:42:34,8.02347660064697,18.7260475158691
01/01/2014 01:42:35,7.85539865493774,18.4943599700928
01/01/2014 01:42:36,7.69479846954346,18.2610969543457
01/01/2014 01:42:37,7.56710767745972,18.0350093841553
01/01/2014 01:42:38,7.52822399139404,17.9451999664307
01/01/2014 01:42:39,7.48383188247681,17.9642658233643
01/01/2014 01:42:40,7.52823352813721,18.016752243042
01/01/2014 01:42:41,7.51800298690796,18.0519943237305
01/01/2014 01:42:42,7.55626678466797,18.0593795776367
01/01/2014 01:42:43,7.59185838699341,18.0509796142578
01/01/2014 01:42:44,7.6053638458252,18.0410575866699
01/01/2014 01:42:45,7.60184335708618,18.0363636016846
01/01/2014 01:42:46,7.59341430664063,18.0365829467773
01/01/2014 01:42:47,7.5879430770874,18.0386867523193
01/01/2014 01:42:48,7.58691120147705,18.0403251647949
01/01/2014 01:42:49,7.58830976486206,18.0408058166504
01/01/2014 01:42:50,7.58988046646118,18.04052734375
01/01/2014 01:42:51,7.59059524536133,18.0401020050049
01/01/2014 01:42:52,7.59053754806519,18.039867401123
01/01/2014 01:42:53,7.59019660949707,18.0398502349854
01/01/2014 01:42:54,7.58994102478027,18.0399303436279
01/01/2014 01:42:55,7.58987092971802,18.0400047302246
01/01/2014 01:42:56,7.58991813659668,18.0400333404541
01/01/2014 01:42:57,7.58998584747314,18.0400238037109
01/01/2014 01:42:58,7.59002208709717,18.0400066375732
01/01/2014 01:42:59,7.5900239944458,18.0399951934814
01/01/2014 01:43:00,7.59001064300537,18.0399932861328
01/01/2014 01:43:01,7.58999872207642,18.0399971008301
01/01/2014 01:43:02,7.58999490737915,18.0399990081787
01/01/2014 01:43:03,7.58999633789063,18.0400009155273
01/01/2014 01:43:04,7.58999919891357,18.0400009155273
01/01/2014 01:43:05,7.59000062942505,18.0400009155273
01/01/2014 01:43:06,7.59000110626221,18.0399990081787
01/01/2014 01:43:07,7.59000062942505,18.1048736572266
01/01/2014 01:43:08,7.59000015258789,18.1581001281738
01/01/2014 01:43:09,7.58999967575073,18.1751594543457
01/01/2014 01:43:10,7.58999967575073,18.1673202514648
01/01/2014 01:43:11,7.59000015258789,18.1538887023926
01/01/2014 01:43:12,7.59000015258789,18.1460857391357
01/01/2014 01:43:13,7.59000015258789,18.1451930999756
01/01/2014 01:43:14,7.59000015258789,18.1476612091064
01/01/2014 01:43:15,7.59000015258789,18.150053024292
01/01/2014 01:43:16,7.52512693405151,18.1510028839111
01/01/2014 01:43:17,7.47189950942993,18.1508007049561
01/01/2014 01:43:18,7.45484018325806,18.1502456665039
01/01/2014 01:43:19,7.39780712127686,18.0201263427734
01/01/2014 01:43:20,7.29313707351685,17.9135932922363
01/01/2014 01:43:21,7.16578102111816,17.8795642852783
01/01/2014 01:43:22,7.10422658920288,17.8953495025635
01/01/2014 01:43:23,7.04109621047974,17.9222602844238
01/01/2014 01:43:24,6.94967794418335,17.8081188201904
01/01/2014 01:43:25,6.83569574356079,17.703426361084
01/01/2014 01:43:26,6.58505964279175,17.5994815826416
01/01/2014 01:43:27,6.36130237579346,17.5571441650391
01/01/2014 01:43:28,6.21566104888916,17.5650501251221
01/01/2014 01:43:29,5.99334001541138,17.5240325927734
01/01/2014 01:43:30,5.8058032989502,17.4871349334717
01/01/2014 01:43:31,5.48364543914795,17.4088134765625
01/01/2014 01:43:32,5.23138093948364,17.3596897125244
01/01/2014 01:43:33,5.0268177986145,17.2217693328857
01/01/2014 01:43:34,4.9624662399292,17.0638866424561
01/01/2014 01:43:35,4.79896831512451,16.9260520935059
01/01/2014 01:43:36,4.62634658813477,16.7479858398438
01/01/2014 01:43:37,4.4220404624939,16.4638118743896
01/01/2014 01:43:38,4.32522630691528,16.1739540100098
01/01/2014 01:43:39,4.26473379135132,15.8580894470215
01/01/2014 01:43:40,4.25481796264648,15.5880937576294
01/01/2014 01:43:41,4.20662593841553,15.3015270233154
01/01/2014 01:43:42,4.17115259170532,14.9825468063354
01/01/2014 01:43:43,4.16181755065918,14.6437711715698
01/01/2014 01:43:44,4.16871118545532,14.36692237854
01/01/2014 01:43:45,4.17819690704346,14.084132194519
01/01/2014 01:43:46,4.11827850341797,13.7061901092529
01/01/2014 01:43:47,4.06522512435913,13.3823595046997
01/01/2014 01:43:48,3.9814031124115,13.1419620513916
01/01/2014 01:43:49,3.93439292907715,12.9478225708008
01/01/2014 01:43:50,3.93020915985107,12.7574081420898
01/01/2014 01:43:51,4.01093482971191,12.5510740280151
01/01/2014 01:43:52,4.07888650894165,12.2652769088745
01/01/2014 01:43:53,4.23126840591431,11.9856834411621
01/01/2014 01:43:54,4.39329242706299,11.6789083480835
01/01/2014 01:43:55,4.65833711624146,11.3472852706909
01/01/2014 01:43:56,4.87420701980591,11.0712976455688
01/01/2014 01:43:57,5.13721179962158,10.7862815856934
01/01/2014 01:43:58,5.3941912651062,10.6007766723633
01/01/2014 01:43:59,5.69176340103149,10.3708801269531
01/01/2014 01:44:00,5.96023941040039,10.1286087036133
01/01/2014 01:44:01,6.31793642044067,9.82952117919922
01/01/2014 01:44:02,6.56615495681763,9.55376815795898
01/01/2014 01:44:03,6.81769180297852,9.32046890258789
01/01/2014 01:44:04,7.05199098587036,9.11242866516113
01/01/2014 01:44:05,7.27078533172607,8.9076976776123
01/01/2014 01:44:06,7.41905689239502,8.630446434021
01/01/2014 01:44:07,7.58069944381714,8.42208194732666
01/01/2014 01:44:08,7.65249729156494,8.170241355896
01/01/2014 01:44:09,7.70996713638306,7.98421764373779
01/01/2014 01:44:10,7.7925386428833,7.87002944946289
01/01/2014 01:44:11,7.96645736694336,7.72290849685669
01/01/2014 01:44:12,8.20502758026123,7.58416938781738
01/01/2014 01:44:13,8.45916843414307,7.46581792831421
01/01/2014 01:44:14,8.76443576812744,7.29588270187378
01/01/2014 01:44:15,9.04039001464844,7.14013242721558
01/01/2014 01:44:16,9.27132034301758,6.95231008529663
01/01/2014 01:44:17,9.47733306884766,6.86209917068481
01/01/2014 01:44:18,9.74624538421631,6.73538970947266
01/01/2014 01:44:19,10.0769891738892,6.60356092453003
01/01/2014 01:44:20,10.367787361145,6.41763257980347
01/01/2014 01:44:21,10.6653165817261,6.2542896270752
01/01/2014 01:44:22,10.919885635376,6.06679821014404
01/01/2014 01:44:23,11.2013149261475,5.91510057449341
01/01/2014 01:44:24,11.3926630020142,5.73780632019043
01/01/2014 01:44:25,11.6288261413574,5.52482461929321
01/01/2014 01:44:26,11.8089685440063,5.3579363822937
01/01/2014 01:44:27,11.9896354675293,5.17863512039185
01/01/2014 01:44:28,12.1288414001465,5.03511190414429
01/01/2014 01:44:29,12.2986860275269,4.7962908744812
01/01/2014 01:44:30,12.4458074569702,4.59434747695923
01/01/2014 01:44:31,12.6265869140625,4.26713752746582
01/01/2014 01:44:32,12.7794313430786,4.01663875579834
01/01/2014 01:44:33,12.9604215621948,3.81559658050537
01/01/2014 01:44:34,13.1759643554688,3.68853664398193
01/01/2014 01:44:35,13.2785654067993,3.53701567649841
01/01/2014 01:44:36,13.2094497680664,3.46481966972351
01/01/2014 01:44:37,13.1106491088867,3.46774458885193
01/01/2014 01:44:38,13.0579385757446,3.49976229667664
01/01/2014 01:44:39,13.120096206665,3.6545786857605
01/01/2014 01:44:40,13.2575922012329,3.8333420753479
01/01/2014 01:44:41,13.4746532440186,3.98137593269348
01/01/2014 01:44:42,13.7260885238647,4.02949953079224
01/01/2014 01:44:43,13.9082136154175,4.07312726974487
01/01/2014 01:44:44,14.1491146087646,4.15405416488647
01/01/2014 01:44:45,14.2720556259155,4.3323016166687
01/01/2014 01:44:46,14.4687175750732,4.51022529602051
01/01/2014 01:44:47,14.6445150375366,4.64795780181885
01/01/2014 01:44:48,14.8378200531006,4.81771945953369
01/01/2014 01:44:49,14.9891796112061,4.96537685394287
01/01/2014 01:44:50,15.1638107299805,5.14662981033325
01/01/2014 01:44:51,15.3098735809326,5.3645167350769
01/01/2014 01:44:52,15.3580741882324,5.40405988693237
01/01/2014 01:44:53,15.2728281021118,5.47686338424683
01/01/2014 01:44:54,15.1182374954224,5.52037572860718
01/01/2014 01:44:55,15.0263690948486,5.72082853317261
01/01/2014 01:44:56,14.8846664428711,5.93232107162476
01/01/2014 01:44:57,14.7412157058716,6.28310537338257
01/01/2014 01:44:58,14.5519027709961,6.54903030395508
01/01/2014 01:44:59,14.3256769180298,6.7530574798584
01/01/2014 01:45:00,14.0231065750122,6.87623834609985
01/01/2014 01:45:01,13.6730394363403,6.9584789276123
01/01/2014 01:45:02,13.3801946640015,7.04029512405396
01/01/2014 01:45:03,13.0889129638672,7.13855886459351
01/01/2014 01:45:04,12.7754383087158,7.25049161911011
01/01/2014 01:45:05,12.3782396316528,7.36689186096191
01/01/2014 01:45:06,12.0511980056763,7.48135089874268
01/01/2014 01:45:07,11.6863193511963,7.59238338470459
01/01/2014 01:45:08,11.3913621902466,7.7014012336731
01/01/2014 01:45:09,11.0395498275757,7.74529886245728
01/01/2014 01:45:10,10.7421493530273,7.8663387298584
01/01/2014 01:45:11,10.4478464126587,7.94764137268066
01/01/2014 01:45:12,10.1337604522705,8.02956676483154
01/01/2014 01:45:13,9.86704730987549,8.12830448150635
01/01/2014 01:45:14,9.582444190979,8.24058151245117
01/01/2014 01:45:15,9.26372909545898,8.29219722747803
01/01/2014 01:45:16,8.8594913482666,8.28848648071289
01/01/2014 01:45:17,8.52882289886475,8.26426601409912
01/01/2014 01:45:18,8.22873115539551,8.24591636657715
01/01/2014 01:45:19,7.98841714859009,8.3056697845459
01/01/2014 01:45:20,7.71973419189453,8.36222457885742
01/01/2014 01:45:21,7.46812391281128,8.44898700714111
01/01/2014 01:45:22,7.17728710174561,8.56184673309326
01/01/2014 01:45:23,6.91213369369507,8.74859809875488
01/01/2014 01:45:24,6.61927366256714,8.92039966583252
01/01/2014 01:45:25,6.35801649093628,9.11449337005615
01/01/2014 01:45:26,6.13405561447144,9.33301067352295
01/01/2014 01:45:27,5.86285877227783,9.49754905700684
01/01/2014 01:45:28,5.66734981536865,9.67265129089355
01/01/2014 01:45:29,5.42357492446899,9.81369304656982
01/01/2014 01:45:30,5.23889350891113,9.98732757568359
01/01/2014 01:45:31,5.05762529373169,10.1368045806885
01/01/2014 01:45:32,4.9197883605957,10.3179626464844
01/01/2014 01:45:33,4.81618595123291,10.53502368927
01/01/2014 01:45:34,4.65798187255859,10.7685480117798
01/01/2014 01:45:35,4.50580644607544,11.0008506774902
01/01/2014 01:45:36,4.38097715377808,11.2253952026367
01/01/2014 01:45:37,4.27611255645752,11.5089511871338
01/01/2014 01:45:38,4.17640924453735,11.9089794158936
01/01/2014 01:45:39,4.20249700546265,12.2506170272827
01/01/2014 01:45:40,4.26480484008789,12.5614376068115
01/01/2014 01:45:41,4.30522537231445,12.8060531616211
01/01/2014 01:45:42,4.37770128250122,13.1387376785278
01/01/2014 01:45:43,4.48545789718628,13.4410953521729
01/01/2014 01:45:44,4.54413843154907,13.747314453125
01/01/2014 01:45:45,4.5480785369873,14.0042686462402
01/01/2014 01:45:46,4.59211111068726,14.2840919494629
01/01/2014 01:45:47,4.62662267684937,14.5380163192749
01/01/2014 01:45:48,4.70174837112427,14.8910541534424
01/01/2014 01:45:49,4.81410264968872,15.2062931060791
01/01/2014 01:45:50,4.94034147262573,15.5796041488647
01/01/2014 01:45:51,5.06269979476929,15.8863229751587
01/01/2014 01:45:52,5.04643154144287,16.1794528961182
01/01/2014 01:45:53,5.04775953292847,16.4238796234131
01/01/2014 01:45:54,5.05552339553833,16.6987934112549
01/01/2014 01:45:55,5.06134843826294,16.9538269042969
01/01/2014 01:45:56,5.12781620025635,17.2449188232422
01/01/2014 01:45:57,5.17996215820313,17.5737476348877
01/01/2014 01:45:58,5.26035261154175,17.8538780212402
01/01/2014 01:45:59,5.30491971969604,18.0785655975342
01/01/2014 01:46:00,5.37337970733643,18.2777442932129
01/01/2014 01:46:01,5.47614002227783,18.5436115264893
01/01/2014 01:46:02,5.53236865997314,18.7449131011963
01/01/2014 01:46:03,5.60121965408325,18.9307537078857
01/01/2014 01:46:04,5.69951677322388,19.1303977966309
01/01/2014 01:46:05,5.75192260742188,19.4125823974609
01/01/2014 01:46:06,5.81946849822998,19.6919555664063
01/01/2014 01:46:07,5.91826295852661,19.9351596832275
01/01/2014 01:46:08,6.03648519515991,20.214714050293
01/01/2014 01:46:09,6.09295606613159,20.4091854095459
01/01/2014 01:46:10,6.15566205978394,20.7135543823242
01/01/2014 01:46:11,6.18394565582275,20.9483776092529
01/01/2014 01:46:12,6.31117248535156,21.1459274291992
01/01/2014 01:46:13,6.40395832061768,21.3414268493652
01/01/2014 01:46:14,6.49276685714722,21.5505332946777
01/01/2014 01:46:15,6.59244108200073,21.8365211486816
01/01/2014 01:46:16,6.63779020309448,22.0502586364746
01/01/2014 01:46:17,6.6989803314209,22.302921295166
01/01/2014 01:46:18,6.79545545578003,22.487419128418
01/01/2014 01:46:19,6.97925519943237,22.664888381958
01/01/2014 01:46:20,7.15535545349121,22.9294300079346
01/01/2014 01:46:21,7.35418748855591,23.2034244537354
01/01/2014 01:46:22,7.50995588302612,23.4494533538818
01/01/2014 01:46:23,7.62106561660767,23.6037864685059
01/01/2014 01:46:24,7.77807283401489,23.7592277526855
01/01/2014 01:46:25,7.92618656158447,23.9531993865967
01/01/2014 01:46:26,8.11304664611816,24.113452911377
01/01/2014 01:46:27,8.33534717559814,24.3599853515625
01/01/2014 01:46:28,8.50595664978027,24.5613899230957
01/01/2014 01:46:29,8.68448925018311,24.7552490234375
01/01/2014 01:46:30,8.76098155975342,24.896556854248
01/01/2014 01:46:31,8.94511890411377,25.1275863647461
01/01/2014 01:46:32,9.12969493865967,25.324047088623
01/01/2014 01:46:33,9.33534240722656,25.5202083587646
01/01/2014 01:46:34,9.49322605133057,25.7303066253662
01/01/2014 01:46:35,9.60327434539795,25.8870868682861
01/01/2014 01:46:36,9.69367122650146,26.0592803955078
01/01/2014 01:46:37,9.78756618499756,26.2011165618896
01/01/2014 01:46:38,9.89239501953125,26.3117237091064
01/01/2014 01:46:39,10.0047578811646,26.3442878723145
01/01/2014 01:46:40,10.1836919784546,26.4553775787354
01/01/2014 01:46:41,10.4141550064087,26.5980377197266
01/01/2014 01:46:42,10.7244606018066,26.7343883514404
01/01/2014 01:46:43,11.0142621994019,26.7877388000488
01/01/2014 01:46:44,11.3193597793579,26.840446472168
01/01/2014 01:46:45,11.5805463790894,26.8618068695068
01/01/2014 01:46:46,11.9291734695435,26.8577079772949
01/01/2014 01:46:47,12.1729421615601,26.8455848693848
01/01/2014 01:46:48,12.4245481491089,26.8373165130615
01/01/2014 01:46:49,12.6607294082642,26.8355083465576
01/01/2014 01:46:50,12.9459133148193,26.8374156951904
01/01/2014 01:46:51,13.2127571105957,26.9045944213867
01/01/2014 01:46:52,13.4444513320923,27.0238056182861
01/01/2014 01:46:53,13.7197017669678,27.0940570831299
01/01/2014 01:46:54,13.9153633117676,27.1676654815674
01/01/2014 01:46:55,14.2224740982056,27.2641124725342
01/01/2014 01:46:56,14.4590587615967,27.3779220581055
01/01/2014 01:46:57,14.7218036651611,27.5614814758301
01/01/2014 01:46:58,14.9700708389282,27.6653995513916
01/01/2014 01:46:59,15.2606010437012,27.8051052093506
01/01/2014 01:47:00,15.4620008468628,27.9419746398926
01/01/2014 01:47:01,15.6378049850464,28.0618324279785
01/01/2014 01:47:02,15.8291730880737,28.1688995361328
01/01/2014 01:47:03,15.9789390563965,28.2724475860596
01/01/2014 01:47:04,16.1530590057373,28.3134841918945
01/01/2014 01:47:05,16.3642272949219,28.3695468902588
01/01/2014 01:47:06,16.5309314727783,28.3987121582031
01/01/2014 01:47:07,16.8405704498291,28.4645137786865
01/01/2014 01:47:08,17.1559829711914,28.5065402984619
01/01/2014 01:47:09,17.4823684692383,28.5140266418457
01/01/2014 01:47:10,17.7505130767822,28.5678005218506
01/01/2014 01:47:11,18.0312442779541,28.5439777374268
01/01/2014 01:47:12,18.3461952209473,28.5023708343506
01/01/2014 01:47:13,18.684061050415,28.4131336212158
01/01/2014 01:47:14,18.9618148803711,28.3569831848145
01/01/2014 01:47:15,19.1808471679688,28.2826499938965
01/01/2014 01:47:16,19.441234588623,28.2446937561035
01/01/2014 01:47:17,19.694766998291,28.1791744232178
01/01/2014 01:47:18,19.9905853271484,28.076114654541
01/01/2014 01:47:19,20.2590370178223,27.9535598754883
01/01/2014 01:47:20,20.5525608062744,27.8952865600586
01/01/2014 01:47:21,20.7481346130371,27.8977489471436
01/01/2014 01:47:22,20.9828052520752,27.8588047027588
01/01/2014 01:47:23,21.2897338867188,27.7609672546387
01/01/2014 01:47:24,21.5101680755615,27.6966686248779
01/01/2014 01:47:25,21.7597351074219,27.619176864624
01/01/2014 01:47:26,22.0038166046143,27.5171012878418
01/01/2014 01:47:27,22.2314453125,27.4002666473389
01/01/2014 01:47:28,22.4478244781494,27.3462810516357
01/01/2014 01:47:29,22.726598739624,27.2850437164307
01/01/2014 01:47:30,22.9963054656982,27.1920738220215
01/01/2014 01:47:31,23.1681060791016,27.1409149169922
01/01/2014 01:47:32,23.3281669616699,27.0073337554932
01/01/2014 01:47:33,23.5836334228516,26.8538475036621
01/01/2014 01:47:34,23.7924499511719,26.7178401947021
01/01/2014 01:47:35,23.9887256622314,26.5394687652588
01/01/2014 01:47:36,24.1938457489014,26.3840408325195
01/01/2014 01:47:37,24.4762439727783,26.2648162841797
01/01/2014 01:47:38,24.7535457611084,26.1658840179443
01/01/2014 01:47:39,24.9949626922607,26.0687503814697
01/01/2014 01:47:40,25.2738990783691,25.8998928070068
01/01/2014 01:47:41,25.5334720611572,25.8011951446533
01/01/2014 01:47:42,25.7617607116699,25.6597423553467
01/01/2014 01:47:43,25.9723281860352,25.584171295166
01/01/2014 01:47:44,26.181188583374,25.5801963806152
01/01/2014 01:47:45,26.3959178924561,25.5430641174316
01/01/2014 01:47:46,26.6810359954834,25.5142288208008
01/01/2014 01:47:47,26.9566268920898,25.505802154541
01/01/2014 01:47:48,27.1955242156982,25.4458465576172
01/01/2014 01:47:49,27.4730968475342,25.4001083374023
01/01/2014 01:47:50,27.7325820922852,25.3223056793213
01/01/2014 01:47:51,27.9613609313965,25.2123584747314
01/01/2014 01:47:52,28.2372379302979,25.1540679931641
01/01/2014 01:47:53,28.4994831085205,25.0864715576172
01/01/2014 01:47:54,28.7960948944092,24.9900512695313
01/01/2014 01:47:55,28.9967498779297,24.8089237213135
01/01/2014 01:47:56,29.1694469451904,24.6349925994873
01/01/2014 01:47:57,29.3585720062256,24.5665912628174
01/01/2014 01:47:58,29.6375198364258,24.4520778656006
01/01/2014 01:47:59,29.918550491333,24.3213081359863
01/01/2014 01:48:00,30.1644420623779,24.196117401123
01/01/2014 01:48:01,30.3157768249512,24.0173034667969
01/01/2014 01:48:02,30.4688148498535,23.8570728302002
01/01/2014 01:48:03,30.5971698760986,23.6043434143066
01/01/2014 01:48:04,30.7694473266602,23.3978424072266
01/01/2014 01:48:05,30.8581409454346,23.2023448944092
01/01/2014 01:48:06,30.9899845123291,22.9320392608643
01/01/2014 01:48:07,31.0617752075195,22.6607112884521
01/01/2014 01:48:08,31.1963348388672,22.4192352294922
01/01/2014 01:48:09,31.3421630859375,22.2026710510254
01/01/2014 01:48:10,31.4714832305908,21.9294281005859
01/01/2014 01:48:11,31.5177631378174,21.6643314361572
01/01/2014 01:48:12,31.5026836395264,21.4291744232178
01/01/2014 01:48:13,31.5361976623535,21.1503658294678
01/01/2014 01:48:14,31.6347541809082,20.8234577178955
01/01/2014 01:48:15,31.7018699645996,20.6047401428223
01/01/2014 01:48:16,31.781379699707,20.429651260376
01/01/2014 01:48:17,31.8190822601318,20.1811008453369
01/01/2014 01:48:18,31.8822708129883,19.854377746582
01/01/2014 01:48:19,31.9186496734619,19.5585250854492
01/01/2014 01:48:20,31.9225749969482,19.3200721740723
01/01/2014 01:48:21,31.9757442474365,19.1160488128662
01/01/2014 01:48:22,32.082633972168,18.9167289733887
01/01/2014 01:48:23,32.1485214233398,18.6422691345215
01/01/2014 01:48:24,32.2236022949219,18.4339733123779
01/01/2014 01:48:25,32.3230514526367,18.116174697876
01/01/2014 01:48:26,32.3738441467285,17.8760013580322
01/01/2014 01:48:27,32.3747215270996,17.549825668335
01/01/2014 01:48:28,32.4194793701172,17.3158588409424
01/01/2014 01:48:29,32.4558372497559,17.0630836486816
01/01/2014 01:48:30,32.5321846008301,16.7570476531982
01/01/2014 01:48:31,32.5799102783203,16.5447769165039
01/01/2014 01:48:32,32.5877456665039,16.3015403747559
01/01/2014 01:48:33,32.6394691467285,16.0593032836914
01/01/2014 01:48:34,32.6786956787109,15.8305921554565
01/01/2014 01:48:35,32.7545318603516,15.5476932525635
01/01/2014 01:48:36,32.8006629943848,15.2796592712402
01/01/2014 01:48:37,32.8722763061523,15.0460519790649
01/01/2014 01:48:38,32.9121055603027,14.9643392562866
01/01/2014 01:48:39,32.980281829834,14.9282579421997
01/01/2014 01:48:40,32.8901329040527,14.8673028945923
01/01/2014 01:48:41,32.7233276367188,14.7672185897827
01/01/2014 01:48:42,32.6234436035156,14.580361366272
01/01/2014 01:48:43,32.545051574707,14.4032325744629
01/01/2014 01:48:44,32.4568328857422,14.1399383544922
01/01/2014 01:48:45,32.4166145324707,14.0614471435547
01/01/2014 01:48:46,32.484676361084,14.1699342727661
01/01/2014 01:48:47,32.7516403198242,14.1614017486572
01/01/2014 01:48:48,33.0725059509277,14.0450210571289
01/01/2014 01:48:49,33.2911262512207,13.8232860565186
01/01/2014 01:48:50,33.4686126708984,13.6891002655029
01/01/2014 01:48:51,33.654296875,13.6050939559937
01/01/2014 01:48:52,33.9284553527832,13.5263433456421
01/01/2014 01:48:53,34.2069702148438,13.4961929321289
01/01/2014 01:48:54,34.4527626037598,13.5037622451782
01/01/2014 01:48:55,34.7996635437012,13.4574680328369
01/01/2014 01:48:56,35.1132049560547,13.4163789749146
01/01/2014 01:48:57,35.4227676391602,13.4016580581665
01/01/2014 01:48:58,35.6778793334961,13.4064359664917
01/01/2014 01:48:59,35.9548149108887,13.3515224456787
01/01/2014 01:49:00,36.2071304321289,13.3045063018799
01/01/2014 01:49:01,36.4302825927734,13.2884578704834
01/01/2014 01:49:02,36.769359588623,13.2945785522461
01/01/2014 01:49:03,37.0857696533203,13.3061847686768
01/01/2014 01:49:04,37.4008941650391,13.313196182251
01/01/2014 01:49:05,37.6593894958496,13.3141870498657
01/01/2014 01:49:06,37.936824798584,13.2472515106201
01/01/2014 01:49:07,38.2530326843262,13.1919250488281
01/01/2014 01:49:08,38.4635314941406,13.1091165542603
01/01/2014 01:49:09,38.7660140991211,13.1287441253662
01/01/2014 01:49:10,39.1224632263184,13.1788196563721
01/01/2014 01:49:11,39.4205780029297,13.2118539810181
01/01/2014 01:49:12,39.6486930847168,13.1535425186157
01/01/2014 01:49:13,39.9081802368164,13.0921459197998
01/01/2014 01:49:14,40.2221183776855,13.0656929016113
01/01/2014 01:49:15,40.5029983520508,13.0691757202148
01/01/2014 01:49:16,40.7992820739746,13.0828857421875
01/01/2014 01:49:17,41.1217727661133,13.0927057266235
01/01/2014 01:49:18,41.3945693969727,13.0951385498047
01/01/2014 01:49:19,41.6158409118652,13.0931062698364
01/01/2014 01:49:20,41.8801002502441,13.0904407501221
01/01/2014 01:49:21,42.1358909606934,13.0242137908936
01/01/2014 01:49:22,42.3670997619629,12.9709692001343
01/01/2014 01:49:23,42.6464881896973,12.9544515609741
01/01/2014 01:49:24,42.8457412719727,12.8978700637817
01/01/2014 01:49:25,43.1541023254395,12.7933483123779
01/01/2014 01:49:26,43.3902397155762,12.7308015823364
01/01/2014 01:49:27,43.6521034240723,12.657488822937
01/01/2014 01:49:28,43.8349609375,12.6229963302612
01/01/2014 01:49:29,44.0073089599609,12.5598983764648
01/01/2014 01:49:30,44.2683219909668,12.5222778320313
01/01/2014 01:49:31,44.5415229797363,12.4524230957031